458  
ASUS41 KBTV 141610  
RWRBTV  
VERMONT REGIONAL WEATHER ROUNDUP  
NATIONAL WEATHER SERVICE BURLINGTON VT  
1200 PM EDT TUE AUG 14 2018  
 
NOTE: "FAIR" INDICATES FEW OR NO CLOUDS BELOW 12,000 FEET WITH NO  
SIGNIFICANT WEATHER AND/OR S TO VISIBILITY
.  
 
* THESE REPORTS ARE NOT UNDER NWS QUALITY CONTROL AND/OR DO NOT  
REPORT WEATHER SUCH AS PRECIPITATION AND FOG.
 
 
VTZ001>019-141700-  
_____VERMONT_____  
 
 
CITY SKY/WX TMP DP RH WIND PRES REMARKS
 
BURLINGTON PTSUNNY 79 69 71 N3 29.86F  
MONTPELIER PTSUNNY 75 69 81 S15 29.95F  
MORRISVILLE CLOUDY 76 69 79 S6 29.90F  
ST. JOHNSBURY* N/A 77 69 76 MISG 29.88F  
LYNDONVILLE* PTSUNNY 76 68 75 E6 29.94F  
MIDDLEBURY* CLOUDY 79 69 70 SW6 29.87F  
RUTLAND* PTSUNNY 78 67 68 SE8 29.89F  
SPRINGFIELD PTSUNNY 78 69 73 S9 29.90F  
HIGHGATE* CLOUDY 80 72 77 CALM 29.87F  
NEWPORT* CLOUDY 75 69 81 SE3 29.92S  
BENNINGTON PTSUNNY 79 67 66 S10 29.88F  
LAKE EDEN* N/A 75 N/A N/A SW8 N/A  
 
_____LAKE CHAMPLAIN_____  
 
 
CITY SKY/WX TMP DP RH WIND PRES REMARKS
 
BURTON ISLAND* N/A 75 70 83 N1 N/A  
COLCHESTER RF* N/A 73 70 88 NW1 N/A  
 

 
 
NYZ007-026>031-035-052-083-087-141700-  
_____NORTHERN NEW YORK_____  
 
 
CITY SKY/WX TMP DP RH WIND PRES REMARKS
 
PLATTSBURGH PTSUNNY 73 70 90 VRB3 29.86F  
SARANAC LAKE CLOUDY 72 68 87 NE5 29.89S  
MASSENA CLOUDY 76 72 87 E6 29.87F  
OGDENSBURG* LGT RAIN 74 70 89 E3 29.86S  
POTSDAM* CLOUDY 72 72 100 NE3 29.86F  
WATERTOWN RAIN 72 71 97 NE12 29.84S FOG  
FT DRUM DRIZZLE 73 73 100 NE12 29.84F  
ALBANY PTSUNNY 80 67 64 S14 29.86S  
GLENS FALLS FAIR 78 69 73 S9 29.86S  
 

 
NHZ002-005-011-141700-  
_____NEW HAMPSHIRE_____  
 
 
CITY SKY/WX TMP DP RH WIND PRES REMARKS
 
LEBANON PTSUNNY 79 68 69 S5 29.89F  
KEENE FAIR N/A N/A N/A S9 29.89F  
MT WASHINGTON DRZL/FOG 55 55 100 S15G21 N/A VSB 1/16  
PLYMOUTH CLOUDY 73 68 86 E3 29.92S  
WHITEFIELD LGT RAIN 72 69 90 CALM 29.93S  
 

 
 
_____REGIONAL QUEBEC LOCATIONS_____  
 
 
CITY SKY/WX TMP DP RH WIND PRES REMARKS
 
MONTREAL LGT RAIN 77 70 78 SE7 29.86F  
QUEBEC CITY PTSUNNY 81 68 65 VRB7 29.87F  
SHERBROOKE CLOUDY 75 68 78 VRB2 29.90F  
 
_____REGIONAL ONTARIO LOCATIONS_____  
 
 
CITY SKY/WX TMP DP RH WIND PRES REMARKS
 
OTTAWA PTSUNNY 79 70 73 E7 29.86S  
 
______KEY______  
VSB - VISIBILITY IN MILES  
WCI - WIND CHILL INDEX  
HX - HEAT INDEX  

 
NNNN  
 
 
CLICK HERE TO GO TO PREVIOUS BULLETINS.

The Nexlab VT Page
The Nexlab NY Page Main Text Page